NOAA 16 DEB, 41536

Orbit data source: Space-Track

NOAA 16 DEB, 41536 is space debris in SSO originally from a launch on Thu, 21 Sep 2000 UTC launched from the Air Force Western Test Range (AFWTR). Debris objects in space refer to the collection of defunct objects orbiting the Earth. Examples of debris include non-operational satellites, rocket bodies, and fragments generated from explosions, collisions, or faulty payload assembly.

Loading next visibility...
Identifier
41536, 2000-055NL
Orbit
SSO
Country
Flag of USUS
Related business
Manufacturer
Unknown
Mission
Spacecraft
Bus & Motor
Unknown
Mass
Unknown
Launch date (UTC)
2000-09-21 (25 years ago)
Launch vehicle
Unknown
Launch site
Air Force Western Test Range (AFWTR)
Object type
Payload
Rocket body
Debris
Shape & HBR
Unknown shape, 0.1 m
Radar Cross Section
Small (<0.1 m²)

Expand to show TLE details & history
Last TLE update: 14 hours ago

TLE from 14 hours ago
0 NOAA 16 DEB
1 41536U 00055NL  25302.51149130  .00006739  00000-0  24188-2 0  9995
2 41536  98.7346  38.7307 0013869 151.2429 208.9522 14.34133516506366
Epoch: 2025-10-29T12:16Z
TLE epoch observation values (Epoch: 2025-10-29T12:16:32.848Z)
Latitude
-0.00007°
Longitude
176.51027°
Altitude
789.57 km
Speed
7.454 km/s
True Right ascension
02h 34m 55s
True Declination
0° 00' 00"
Sunlit
Object was in full shadow at epoch
Visualization orbit readout
Latitude
Unknown
Longitude
Unknown
Altitude
Unknown
Speed
Unknown
Apparent Right ascension
Unknown
Apparent Declination
Unknown
Sunlit
N/A
Visualization observer readout
Local Sidereal Time
21:50:12
Azimuth
Unknown
Elevation
Unknown
Doppler factor
Unknown
Orbital elements
Apogee altitude
785.009 km
Perigee altitude
765.167 km
Semi-major axis
7,153.225 km
Eccentricity
0.00139
Inclination
98.7346°
RAAN
38.7307°
Arg. of periapsis
151.2429°
True anomaly
208.87538°
Mean anomaly
208.9522°
Eccentric anomaly
208.91378°
Mean motion
3.58749 °/min
Orbital period
100.35 mins
BSTAR
0.0024188
Loading maneuver chart data...
Computing Atmospheric mass density...
Loading historical data...
Loading historical data...
Loading historical data...
Loading historical data...
Loading historical data...
Loading historical data...
Loading historical data...

Documentation

Showing up to 5 results
|